• In Belgium
  • List of Countries
  • For 7 days
  • Water Temperature
  • Satellite Maps
  • Weather Map
  • Weather Widgets
  • user-avatar
    Login

    Hourly Weather Yeghegnadzor

    Today, 21 November, Tuesday

    Time Temperature Precipitation Wind Pressure Humidity
    00:00 +7°C° 0 mm 3 mps 649 mmHg 72%
    01:00 +7°C° 0 mm 3 mps 649 mmHg 72%
    02:00 +7°C° 0 mm 3 mps 649 mmHg 72%
    03:00 +7°C° 0 mm 3 mps 648 mmHg 76%
    04:00 +7°C° 0 mm 3 mps 648 mmHg 75%
    05:00 +7°C° 0 mm 3 mps 648 mmHg 74%
    06:00 +5°C° 0 mm 3 mps 648 mmHg 73%
    07:00 +8°C° 0 mm 3 mps 648 mmHg 70%
    08:00 +9°C° 0 mm 3 mps 648 mmHg 67%
    09:00 +10°C° 0 mm 3 mps 648 mmHg 62%
    10:00 +11°C° 0 mm 4 mps 648 mmHg 62%
    11:00 +11°C° 0 mm 4 mps 648 mmHg 62%
    12:00 +12°C° 0 mm 5 mps 647 mmHg 62%
    13:00 +11°C° 0.1 mm 4 mps 647 mmHg 64%
    14:00 +11°C° 0.1 mm 4 mps 647 mmHg 66%
    15:00 +11°C° 0.1 mm 4 mps 646 mmHg 67%
    16:00 +10°C° 0 mm 3 mps 646 mmHg 70%
    17:00 +9°C° 0 mm 3 mps 646 mmHg 73%
    18:00 +9°C° 0 mm 3 mps 645 mmHg 76%
    19:00 +8°C° 0 mm 3 mps 645 mmHg 76%
    20:00 +8°C° 0 mm 3 mps 645 mmHg 76%
    21:00 +8°C° 0 mm 3 mps 644 mmHg 76%
    22:00 +8°C° 0 mm 3 mps 644 mmHg 77%
    23:00 +7°C° 0 mm 4 mps 644 mmHg 77%

    Tomorrow, 22 November, Wednesday

    Time Temperature Precipitation Wind Pressure Humidity
    00:00 +6°C° 0 mm 4 mps 644 mmHg 78%
    01:00 +6°C° 0 mm 4 mps 643 mmHg 78%
    02:00 +6°C° 0 mm 4 mps 643 mmHg 79%
    03:00 +6°C° 0 mm 4 mps 643 mmHg 79%
    04:00 +7°C° 0 mm 3 mps 643 mmHg 78%
    05:00 +5°C° 0 mm 3 mps 643 mmHg 78%
    06:00 +5°C° 0 mm 3 mps 643 mmHg 78%
    07:00 +7°C° 0.4 mm 3 mps 643 mmHg 77%
    08:00 +7°C° 0.4 mm 3 mps 643 mmHg 77%
    09:00 +7°C° 0.4 mm 3 mps 643 mmHg 76%
    10:00 +7°C° 0.5 mm 4 mps 643 mmHg 76%
    11:00 +7°C° 0.5 mm 4 mps 643 mmHg 76%
    12:00 +7°C° 0.5 mm 5 mps 643 mmHg 76%
    13:00 +6°C° 0.7 mm 5 mps 643 mmHg 76%
    14:00 +6°C° 0.7 mm 4 mps 643 mmHg 76%
    15:00 +6°C° 0.7 mm 4 mps 643 mmHg 77%
    16:00 +5°C° 0.5 mm 3 mps 644 mmHg 79%
    17:00 +4°C° 0.5 mm 3 mps 644 mmHg 81%
    18:00 +5°C° 0.5 mm 2 mps 645 mmHg 83%
    19:00 +4°C° 0.3 mm 2 mps 645 mmHg 83%
    20:00 +3°C° 0.3 mm 2 mps 645 mmHg 83%
    21:00 +3°C° 0.3 mm 2 mps 646 mmHg 83%
    22:00 +2°C° 0.1 mm 2 mps 646 mmHg 81%
    23:00 +2°C° 0.1 mm 2 mps 646 mmHg 80%

    Day after tomorrow, 23 November, Thursday

    Time Temperature Precipitation Wind Pressure Humidity
    00:00 +1°C° 0.1 mm 2 mps 646 mmHg 79%
    01:00 +1°C° 0.2 mm 2 mps 646 mmHg 79%
    02:00 +1°C° 0.2 mm 2 mps 646 mmHg 79%
    03:00 -1°C° 0.2 mm 2 mps 647 mmHg 78%
    04:00 -1°C° 0.2 mm 2 mps 647 mmHg 79%
    05:00 -1°C° 0.2 mm 2 mps 647 mmHg 80%
    06:00 -2°C° 0.2 mm 2 mps 647 mmHg 81%
    07:00 -2°C° 0 mm 2 mps 648 mmHg 78%
    08:00 -2°C° 0 mm 2 mps 648 mmHg 75%
    09:00 -2°C° 0 mm 2 mps 648 mmHg 72%
    10:00 -1°C° 0 mm 2 mps 648 mmHg 71%
    11:00 0°C° 0 mm 3 mps 648 mmHg 70%
    12:00 0°C° 0 mm 3 mps 648 mmHg 69%
    13:00 0°C° 0 mm 3 mps 647 mmHg 69%
    14:00 0°C° 0 mm 3 mps 647 mmHg 68%
    15:00 0°C° 0 mm 3 mps 647 mmHg 68%
    16:00 0°C° 0.1 mm 3 mps 648 mmHg 71%
    17:00 -1°C° 0.1 mm 2 mps 648 mmHg 74%
    18:00 -2°C° 0.1 mm 2 mps 648 mmHg 77%
    19:00 -2°C° 0.1 mm 2 mps 648 mmHg 77%
    20:00 -2°C° 0.1 mm 2 mps 649 mmHg 77%
    21:00 -2°C° 0.1 mm 2 mps 649 mmHg 77%
    22:00 -2°C° 0.1 mm 2 mps 649 mmHg 78%
    23:00 -2°C° 0.1 mm 2 mps 649 mmHg 78%

    24 November, Friday

    Time Temperature Precipitation Wind Pressure Humidity
    00:00 -3°C° 0.1 mm 2 mps 649 mmHg 79%
    01:00 -3°C° 0.1 mm 2 mps 649 mmHg 79%
    02:00 -3°C° 0.1 mm 2 mps 649 mmHg 80%
    03:00 -3°C° 0.1 mm 2 mps 649 mmHg 80%
    04:00 -2°C° 0 mm 1 mps 649 mmHg 81%
    05:00 -2°C° 0 mm 1 mps 649 mmHg 81%
    06:00 -3°C° 0 mm 1 mps 649 mmHg 81%
    07:00 -2°C° 0 mm 1 mps 650 mmHg 77%
    08:00 -1°C° 0 mm 1 mps 650 mmHg 73%
    09:00 0°C° 0 mm 1 mps 651 mmHg 69%
    10:00 0°C° 0 mm 1 mps 651 mmHg 65%
    11:00 +1°C° 0 mm 1 mps 650 mmHg 61%
    12:00 -1°C° 0 mm 2 mps 650 mmHg 57%
    13:00 -1°C° 0.1 mm 2 mps 650 mmHg 58%
    14:00 +1°C° 0.1 mm 1 mps 650 mmHg 58%
    15:00 +1°C° 0.1 mm 1 mps 650 mmHg 58%
    16:00 0°C° 0 mm 1 mps 650 mmHg 61%
    17:00 -2°C° 0 mm 1 mps 650 mmHg 63%
    18:00 -3°C° 0 mm 1 mps 650 mmHg 65%
    19:00 -3°C° 0 mm 1 mps 651 mmHg 63%
    20:00 -3°C° 0 mm 1 mps 651 mmHg 61%
    21:00 -3°C° 0 mm 1 mps 651 mmHg 60%
    22:00 -3°C° 0 mm 1 mps 651 mmHg 59%
    23:00 -4°C° 0 mm 1 mps 652 mmHg 58%

    25 November, Saturday

    Time Temperature Precipitation Wind Pressure Humidity
    00:00 -4°C° 0 mm 1 mps 652 mmHg 57%
    01:00 -4°C° 0 mm 1 mps 652 mmHg 60%
    02:00 -4°C° 0 mm 1 mps 652 mmHg 63%
    03:00 -4°C° 0 mm 1 mps 653 mmHg 65%
    04:00 -4°C° 0 mm 1 mps 653 mmHg 67%
    05:00 -6°C° 0 mm 1 mps 653 mmHg 68%
    06:00 -6°C° 0 mm 1 mps 654 mmHg 70%
    07:00 -4°C° 0 mm 1 mps 654 mmHg 69%
    08:00 -6°C° 0 mm 2 mps 655 mmHg 68%
    09:00 -5°C° 0 mm 2 mps 656 mmHg 67%
    10:00 -4°C° 0.1 mm 2 mps 656 mmHg 66%
    11:00 -5°C° 0.1 mm 3 mps 656 mmHg 64%
    12:00 -4°C° 0.1 mm 3 mps 656 mmHg 63%
    13:00 -4°C° 0 mm 3 mps 656 mmHg 62%
    14:00 -4°C° 0 mm 3 mps 656 mmHg 62%
    15:00 -3°C° 0 mm 2 mps 656 mmHg 62%
    16:00 -5°C° 0 mm 2 mps 657 mmHg 65%
    17:00 -6°C° 0 mm 2 mps 657 mmHg 68%
    18:00 -7°C° 0 mm 1 mps 657 mmHg 71%
    19:00 -7°C° 0 mm 1 mps 657 mmHg 71%
    20:00 -7°C° 0 mm 1 mps 658 mmHg 71%
    21:00 -7°C° 0 mm 1 mps 658 mmHg 71%
    22:00 -7°C° 0 mm 1 mps 658 mmHg 70%
    23:00 -8°C° 0 mm 1 mps 658 mmHg 69%

    26 November, Sunday

    Time Temperature Precipitation Wind Pressure Humidity
    00:00 -8°C° 0 mm 1 mps 658 mmHg 68%
    01:00 -8°C° 0 mm 1 mps 658 mmHg 66%
    02:00 -8°C° 0 mm 1 mps 658 mmHg 65%
    03:00 -8°C° 0 mm 1 mps 658 mmHg 63%
    04:00 -7°C° 0 mm 1 mps 658 mmHg 61%
    05:00 -7°C° 0 mm 1 mps 657 mmHg 59%
    06:00 -8°C° 0 mm 2 mps 657 mmHg 57%
    07:00 -6°C° 0 mm 1 mps 658 mmHg 57%
    08:00 -4°C° 0 mm 1 mps 658 mmHg 56%
    09:00 -2°C° 0 mm 1 mps 658 mmHg 55%
    10:00 -1°C° 0 mm 1 mps 658 mmHg 53%
    11:00 -2°C° 0 mm 2 mps 658 mmHg 51%
    12:00 -1°C° 0 mm 2 mps 657 mmHg 49%
    13:00 -1°C° 0 mm 2 mps 657 mmHg 50%
    14:00 +1°C° 0 mm 1 mps 657 mmHg 52%
    15:00 +1°C° 0 mm 1 mps 656 mmHg 54%
    16:00 -1°C° 0 mm 1 mps 656 mmHg 54%
    17:00 -2°C° 0 mm 1 mps 656 mmHg 54%
    18:00 -4°C° 0 mm 1 mps 656 mmHg 54%
    19:00 -4°C° 0 mm 1 mps 656 mmHg 51%
    20:00 -4°C° 0 mm 1 mps 656 mmHg 48%
    21:00 -4°C° 0 mm 1 mps 656 mmHg 45%
    22:00 -4°C° 0 mm 1 mps 656 mmHg 44%
    23:00 -4°C° 0 mm 1 mps 656 mmHg 43%
    Show more